Location: Newark
(53.4333°N, 36.0000°E)
Time: 09:25:25
(UTC+00:00)

ISS - Pass Details

Date: 30 September 2019
Orbit: 411 x 421 km, 51.6° (Epoch: 18 October)

Event Time Altitude Azimuth Distance (km) Brightness Sun altitude
Rises 17:47:16 0° 278° (W) 2,348 1.2 -22.6°
Reaches altitude 10° 17:49:26 10° 270° (W) 1,483 -0.1 -22.9°
Enters shadow 17:51:30 29° 243° (WSW) 786 -2.1 -23.2°
